Regional Weather Roundup
Issued by NWS

Home | Current Version | Previous Version | Graphics & Text | Print | Product List | Glossary On
Versions: 1 2 3 4 5 6 7 8 9 10 11 12 13 14 15 16 17 18 19 20 21 22 23 24 25 26 27 28 29 30 31 32 33 34 35 36 37 38 39 40 41 42 43 44 45 46 47 48 49 50
000
ASUS43 KMKX 060259
RWRWI

WISCONSIN REGIONAL WEATHER ROUNDUP
NATIONAL WEATHER SERVICE MILWAUKEE/SULLIVAN WI
900 PM CST THU MAR 05 2015

NOTE: "FAIR" INDICATES FEW OR NO CLOUDS BELOW 12,000 FEET WITH NO
SIGNIFICANT WEATHER AND/OR OBSTRUCTIONS TO VISIBILITY.

WIZ001-002-006>008-014>016-023>028-060400-
NORTHWEST WISCONSIN

CITY           SKY/WX    TMP DP  RH WIND       PRES   REMARKS
SUPERIOR ARPT  CLEAR      8  -4  56 SW9       30.31F WCI  -5
ASHLAND        CLEAR      6  -9  50 SW10      30.31F WCI  -9
HAYWARD        PTCLDY     2  -8  63 S8        30.31F WCI -12
SIREN          PTCLDY     4  -7  61 S3        30.34F
CUMBERLAND     MOCLDY     1  -8  66 S7        30.33F WCI -11
RICE LAKE      MOCLDY     3  -7  63 SE6       30.37F WCI  -8
CHETEK         MOCLDY     3  -6  65 CALM      30.36F
LADYSMITH      MOCLDY     2  -8  62 S7        30.36S WCI -11
EAU CLAIRE     NOT AVBL
MENOMONIE      MOCLDY     5  -4  68 S7        30.40S WCI  -7
NEW RICHMOND   PTCLDY     6  -3  66 S8        30.36F WCI  -6
OSCEOLA        PTCLDY     4  -3  72 SE6       30.39S WCI  -7
$$

WIZ003>005-009-010-017-018-060400-
NORTH CENTRAL WISCONSIN

CITY           SKY/WX    TMP DP  RH WIND       PRES   REMARKS
MANITOWISH WTR CLEAR      3 -13  46 SW7       30.27S WCI  -9
ARBOR VITAE    CLEAR      5 -12  46 SW6       30.27S WCI  -6
WOODRUFF       CLEAR      5 -12  46 SW6       30.27S WCI  -6
RHINELANDER    CLEAR      2 -11  54 SW7       30.29F WCI -11
EAGLE RIVER    CLEAR      3 -14  45 SW13      30.26S WCI -14
LAND O LAKES   CLEAR      6 -13  41 SW6       30.25S WCI  -5
PHILLIPS       PTCLDY     1 -10  58 SW6       30.30S WCI -10
TOMAHAWK       PTCLDY     1 -11  56 CALM      30.32F
MEDFORD        PTCLDY     0 -10  60 SW3       30.33S
MERRILL        PTCLDY     1 -10  60 CALM      30.34F
$$

WIZ029-030-035-036-043>047-060400-
CENTRAL WISCONSIN

CITY           SKY/WX    TMP DP  RH WIND       PRES   REMARKS
WAUSAU         PTCLDY     3 -10  54 SW5       30.36S WCI  -6
MOSINEE        NOT AVBL
MARSHFIELD     PTCLDY     3 -10  54 SW6       30.37S WCI  -8
STEVENS POINT  PTCLDY    -1 -10  66 CALM      30.40S
WAUPACA        FAIR       8  -6  52 SW6       30.43S WCI  -2
WAUTOMA        NOT AVBL
WISC RAPIDS    PTCLDY     6  -8  52 SW6       30.42S WCI  -4
CAMP DOUGLAS   NOT AVBL
$$

WIZ011>013-019>022-031-037>040-048>050-060400-
NORTHEAST WISCONSIN

CITY           SKY/WX    TMP DP  RH WIND       PRES   REMARKS
ANTIGO         PTCLDY    -1 -10  64 W6        30.32S WCI -12
SHAWANO        PTCLDY     9  -8  46 CALM      30.41S
OCONTO         PTCLDY     6  -8  52 W6        30.42S WCI  -4
STURGEON BAY   PTCLDY     9  -8  47 SW8       30.42S WCI  -4
GREEN BAY      PTCLDY     7  -7  52 W5        30.43S WCI  -2
MANITOWOC      NOT AVBL
APPLETON       CLEAR      9  -8  47 SW9       30.42S WCI  -5
CLINTONVILLE   PTCLDY     5  -8  56 SW6       30.41S WCI  -6
OSHKOSH        PTCLDY     8  -5  55 SW5       30.43S WCI   0
$$

WIZ032>034-041-042-053>061-060400-
SOUTHWEST WISCONSIN

CITY           SKY/WX    TMP DP  RH WIND       PRES   REMARKS
LA CROSSE      PTCLDY     6  -4  63 S5        30.47F WCI  -3
SPARTA         PTCLDY     7  -4  59 CALM      30.47R
VIROQUA        PTCLDY     3  -5  70 SW8       30.42S WCI -11
BOSCOBEL       PTCLDY     4  -6  63 SW6       30.51S WCI  -7
PRAIRIE DU CHI FAIR       3  -6  66 CALM      30.51F
PLATTEVILLE    MOCLDY     2  -7  68 S3        30.48S
$$

WIZ056-057-062-063-064-067-068-060400-
SOUTH CENTRAL WISCONSIN

CITY           SKY/WX    TMP DP  RH WIND       PRES   REMARKS
REEDSBURG      MOCLDY     6  -4  61 SW5       30.46R WCI  -3
BARABOO/DELLS  MOCLDY     5  -8  54 CALM      30.44S
LONE ROCK      NOT AVBL
MINERAL POINT  MOCLDY     7  -6  56 SW6       30.46S WCI  -3
MADISON        MOCLDY     7  -6  55 SW6       30.47R WCI  -3
MIDDLETON      MOCLDY     9  -6  51 W7        30.47S WCI  -3
WATERTOWN      PTCLDY     6  -4  63 SW7       30.47R WCI  -6
MONROE         CLOUDY     5  -4  66 SW9       30.46F WCI  -9
JANESVILLE     CLEAR      3  -8  60 SW6       30.50S WCI  -8
$$

WIZ051-052-058>065-066-070>072-060400-
SOUTHEAST WISCONSIN

CITY           SKY/WX    TMP DP  RH WIND       PRES   REMARKS
MILWAUKEE      PTCLDY     9  -6  50 SW9       30.50R WCI  -4
WAUKESHA       CLEAR      3  -8  60 SW6       30.48S WCI  -8
MILWAUKEE/TIMM CLEAR      9  -8  47 SW5       30.49S WCI   0
RACINE         PTCLDY     6  -6  57 SW7       30.52S WCI  -6
BURLINGTON     MOCLDY     1  -7  70 SW5       30.49S WCI  -9
KENOSHA        MOCLDY     6  -6  57 SW6       30.50S WCI  -4
FOND DU LAC    PTCLDY     7  -5  57 SW5       30.44F WCI  -2
SHEBOYGAN      PTCLDY     5  -5  63 SW8       30.45S WCI  -8
WEST BEND      MOCLDY     5  -6  61 SW5       30.45S WCI  -4
JUNEAU         PTCLDY     6  -4  63 S7        30.46S WCI  -6
$$

LSZ147-162-060400-
LAKE SUPERIOR

STATION/POSITION TIME  TEMP    WIND        PRES    WAVE
                       AIR SEA DIR/SP/G            HT/PER
                 (UTC) (F)     (DEG/KT/KT) (MB)    (FT/S)
DEVILS ISLAND    0200   11     220/ 14/ 16 1027.3F
PORT WING        0240   10     200/ 10/ 14 1026.1F
SAXON HARBOR     0200   11     200/ 10/ 14 1026.8F
$$

LMZ867-665-643>646-060400-
LAKE MICHIGAN

STATION/POSITION TIME  TEMP    WIND        PRES    WAVE
                       AIR SEA DIR/SP/G            HT/PER
                 (UTC) (F)     (DEG/KT/KT) (MB)    (FT/S)
NORTHPORT PIER   0220   10     210/  6/ 11 1029.1S
SISTER BAY       0213   10     210/ 12/ 16   N/A
KEWAUNEE LAKESHO 0200   10     220/  4/  6 1029.6F
SHEBOYGAN LAKESH 0200   13     210/ 11/ 12 1033.4F
PORT WASHINGTON  0240   11     250/  4/  6 1032.8S
MILWAUKEE LAKESH 0200   14     250/  8/ 12   N/A
KENOSHA   LAKESH 0200   10     240/  5/ 11 1033.2S
$$

TC  - TEMPERATURE IN CELSIUS
VSB - VISIBILITY IN STATUTE MILES
WCI - WIND CHILL INDEX
HX  - HEAT INDEX



USA.gov is the U.S. government's official web portal to all federal, state and local government web resources and services.